Regional Weather Roundup
Issued by NWS

Home | Current Version | Previous Version | Text Only | Print | Product List | Glossary Off
Versions: 1 2 3 4 5 6 7 8 9 10 11 12 13 14 15 16 17 18 19 20 21 22 23 24 25 26 27

000
ASUS45 KSLC 241110
RWRUT

UTAH REGIONAL WEATHER ROUNDUP
NATIONAL WEATHER SERVICE SALT LAKE CITY UT
500 AM MDT TUE MAY 24 2016

UTZ001>011-023>025-241200-

NORTHERN UTAH

CITY           SKY/WX    TMP DP  RH WIND       PRES   REMARKS
BRIGHAM CITY     N/A     49  39  69 W5        29.81S
HILL AFB       PTCLDY    49  34  56 E15       29.80S
LOGAN          MOCLDY    43  41  93 NE6       29.84S
OGDEN          MOCLDY    50  42  74 CALM      29.80R
PROVO AIRPORT  CLOUDY    52  37  58 CALM      29.83R
SALT LAKE CITY MOCLDY    53  42  66 S7        29.81R
VERNAL         CLOUDY    49  31  49 NW6       29.86R
WENDOVER       PTCLDY    54  34  47 CALM      29.81R
HEBER CITY     MOCLDY    45  36  70 CALM      29.85R
WEST JORDAN    CLOUDY    50  37  62 S6        29.83R

$$

UTZ012>022-026-027-241200-

SOUTHERN/CENTRAL UTAH

CITY           SKY/WX    TMP DP  RH WIND       PRES   REMARKS
BLANDING       CLEAR     43  22  44 NE5       30.00S
BRYCE CANYON   CLEAR     28  21  75 W7        29.96S WCI  21
CEDAR CITY     CLEAR     45  25  45 SE8       29.85S
DELTA          PTCLDY    50  27  40 S9        29.81S
HANKSVILLE     PTCLDY    50  18  27 CALM      29.82R
MILFORD        CLEAR     46  22  38 SW12      29.83S
MOAB/CYNLANDS  PTCLDY    58  19  22 E3        29.79R
PRICE          MOCLDY    51  21  30 NE6       29.83S
ST GEORGE      PTSUNNY   61  21  21 SE5       29.79R
KANAB          CLEAR     39  27  60 NE3       29.91R

$$

REGIONAL REPORTS     COLORADO/ARIZONA

CITY           SKY/WX    TMP DP  RH WIND       PRES   REMARKS
CRAIG, CO      CLOUDY    34  31  88 CALM      29.93S
GRAND JUNCTION CLOUDY    51  24  34 SE16      29.83R
RIFLE          CLOUDY    40  28  62 SW5       29.90R
MONTROSE       CLEAR     50  22  33 E12       29.93R
CORTEZ         CLEAR     38  24  57 NE5       29.97R WCI  34
PAGE, AZ       MOCLDY    62  23  22 SW5       29.83S
GRAND CANYON   PTCLDY    35  21  56 CALM      29.96R
KINGMAN        CLEAR     57  29  34 S7        29.81S
FLAGSTAFF      CLEAR     31  21  66 VRB3      29.97S

$$

REGIONAL REPORTS    NEVADA/IDAHO/WYOMING

CITY           SKY/WX    TMP DP  RH WIND       PRES   REMARKS
LAS VEGAS, NV  PTCLDY    65  36  34 VRB3      29.70S
ELY            PTCLDY    40  34  79 NW8       29.87F WCI  34
ELKO           PTCLDY    45  38  76 CALM      29.84S
POCATELLO, ID  CLEAR     38  34  85 CALM      29.87R
BURLEY         PTCLDY    40  38  93 CALM      29.84S
EVANSTON, WY   CLOUDY    40  30  67 NW6       29.92S
ROCK SPRINGS   CLOUDY    43  32  65 SE12      29.94S
KEMMERER         N/A     34  28  80 CALM      29.95R

$$




USA.gov is the U.S. government's official web portal to all federal, state and local government web resources and services.